O3B PFM

Last updated on Sat Jul 18 2026 00:03:21 GMT+0000 (Coordinated Universal Time)

1 39191U 13031D 26198.42247966 -.00000025 00000+0 00000+0 0 9993 2 39191 0.0664 346.1906 0005254 117.9756 255.8882 5.00116182238186
UTC large
Height (km)
Speed (km/s)
/
Latitude / Longitude
Inclination (degrees)
Orbital Period (minutes)
Azimuth
Elevation
Range (km)
Doppler Factor

Next 0 passes for location: London (51.5072 / 0.1276)

No passes found over London.
O3B PFM